Location: Ferchesar
(52.6477°N, 12.4298°E)
Time: 23:50:08
(UTC+01:00)

Vanguard 2 Rocket - Pass Details

Date: 08 December 2021
Orbit: 554 x 3325 km, 32.9° (Epoch: 18 January)

Event Time Altitude Azimuth Distance (km) Brightness Sun altitude
Rises 19:09:28 0° 232° (SW) 3,381 10.6 -28.0°
Reaches altitude 10° 19:12:38 10° 211° (SSW) 2,777 9.7 -28.5°
Maximum altitude 19:16:39 16° 174° (S) 2,768 9.3 -29.1°
Enters shadow 19:18:21 15° 160° (SSE) 3,019 9.3 -29.3°
